Japanese version Home page |
Updated on May 5, 2012 |
Profile
|
Orbital ElementsEpoch 2000 Oct. 23.0 TT = JDT 2451840.5 T 2000 Nov. 6.86777 TT MPC q 2.4706246 (2000.0) P Q n 0.13078052 Peri. 94.64351 -0.95702315 -0.01253771 a 3.8439172 Node 84.83794 -0.11059683 -0.90778711 e 0.3572638 Incl. 16.91306 +0.26809520 -0.41924381 P 7.54 From 393 observations 1955 May 14-2008 Aug. 3, mean residual 0".8. Nongravitational parameters Y1 = -1.38, Y2 = +0.0131.
|
Finding Charts
|
Magnitudes Graphm1 = 7.5 + 5 log d + 20.0 log r
|
The orbital elements are published on M.P.E.C. 2012-J16.
|